Regional Weather Roundup
Issued by NWS

Home | Current Version | Previous Version | Text Only | Print | Product List | Glossary Off
Versions: 1 2 3 4 5 6 7 8 9 10 11 12 13 14 15 16 17 18 19 20 21 22 23 24 25 26 27 28 29 30 31 32 33 34 35 36 37 38 39 40 41 42 43 44 45 46 47 48 49 50

574
ASUS44 KLIX 270311
RWRLA
LOUISIANA WEATHER ROUNDUP
NATIONAL WEATHER SERVICE NEW ORLEANS LA
1000 PM CDT THU MAR 26 2015

NOTE: "FAIR" INDICATES FEW OR NO CLOUDS BELOW 12,000 FEET WITH NO
      SIGNIFICANT WEATHER AND/OR OBSTRUCTIONS TO VISIBILITY.
      SKY/WX - SKY CONDITION AND SIGNIFICANT WEATHER.
      TMP - AIR TEMPERATURE.    DP   - DEWPOINT TEMPERATURE.
      RH  - RELATIVE HUMIDITY.  PRES - PRESSURE.
      HX  - HEAT INDEX.         WCI  - WIND CHILL INDEX.

*  THESE STATIONS ARE NOT NWS OR FAA STATIONS AND ARE NOT UNDER
   NWS QUALITY CONTROL.

LAZ040-048-061>063-065-066-069-270400-
SOUTHEAST LOUISIANA

CITY           SKY/WX    TMP DP  RH WIND       PRES   REMARKS
N.O. AUDUBON     N/A     63 N/A N/A MISG        N/A
N.O. INTL ARPT CLOUDY    64  61  90 SW3       29.89R
N.O. LAKEFRONT CLOUDY    68  61  78 W8        29.90R
SLIDELL        CLOUDY    63  62  97 CALM      29.88R
BATON ROUGE    CLOUDY    57  53  86 NW8       29.96R
BOOTHVILLE     MOCLDY    62  60  93 W3        29.90R
BELLE CHASSE   MOCLDY    65  62  90 CALM      29.89R
BOGALUSA*        N/A     66  63  88 NW16G24   29.90R
GALLIANO*      PTCLDY    54  53  97 CALM      29.90S FOG
NEW ROADS*     CLOUDY    55  49  81 NW12G18   30.00R
GONZALES*      CLOUDY    62  62  99 NW17G25   29.92R
HAMMOND*       LGT RAIN  63  59  88 N18G29    29.92R
HOUMA*         CLOUDY    64  64  98 NW3       29.90R
PORT FOURCHON* MOCLDY    68  64  88 W9        29.94R

$$

LAZ041-044-053-054-270400-
SOUTHWEST LOUISIANA

CITY           SKY/WX    TMP DP  RH WIND       PRES   REMARKS
LAKE CHARLES   CLOUDY    59  51  75 N12G24    30.02R
LAFAYETTE      CLOUDY    58  53  84 N16       29.99R
PATTERSON      CLOUDY    61  57  88 N14G20    29.94R
SALT POINT       N/A     62  59  90 N10G18    29.92R
NEW IBERIA     CLOUDY    59  55  87 N21       29.97R
CHENAULT AIRPK CLOUDY    57  52  82 N16G24    30.02R

$$

LAZ027-028-270400-
CENTRAL LOUISIANA

CITY           SKY/WX    TMP DP  RH WIND       PRES   REMARKS
FORT POLK      CLOUDY    55  48  76 N9G20     30.06R
ALEXANDRIA INT CLOUDY    54  47  77 N12       30.05R
ALEXANDRIA     CLOUDY    54  46  74 N9G17     30.06R

$$

LAZ001-002-270400-
NORTHWEST LOUISIANA

CITY           SKY/WX    TMP DP  RH WIND       PRES   REMARKS
SHREVEPORT     PTCLDY    50  45  83 CALM      30.08R
BARKSDALE AFB  CLEAR     49  45  86 CALM      30.08R
DTN SHREVEPORT CLEAR     50  43  77 CALM      30.08R

$$

LAZ014-016-270400-
NORTHEAST LOUISIANA

CITY           SKY/WX    TMP DP  RH WIND       PRES   REMARKS
MONROE         CLOUDY    51  45  79 N9        30.08R
TALLULAH       LGT RAIN  52  46  80 N18       30.04R

$$




USA.gov is the U.S. government's official web portal to all federal, state and local government web resources and services.